DLH445 KATL-EDDF

Flight info

Callsign DLH445
Flight time 8h 10m
Altitude 37000
Route ZELAN4 BOBBD Q71 KONGO Q34 NEALS DCT BKW DCT JASEN DCT EMI DCT RBV Q22 FOXWD DCT ALLEX N357C JOOPY/M085F390 NATT BEXET/N0491F390 DCT ENJEX DCT ADHAV DCT AGCAT DCT AXNEF DCT ZIPWE DCT OZZIL DCT SAWPE Q63 CPT UL9 BIG L607 KONAN DCT KOK UL607 SPI T180 NIVNU/N0451F230 T847 IMCOM IMCOM2C
Aircraft B789/H-SDE1E2E3FGHIJ2J3J4J5M1RWXY/LB1D1

Departure

Time 2026-04-16 06:30
Airport Hartsfield Jackson Atlanta International Airport (KATL)

Arrival

Time 2026-04-16 14:40
Airport Frankfurt Main Airport (EDDF)
Time Latitude Longitude Altitude Speed Heading
2026-04-16 06:13 33.63989 -84.42048 1041 ft 0 kts 88°
2026-04-16 06:19 33.63989 -84.42052 1041 ft 1 kts 88°
2026-04-16 06:19 33.63988 -84.42074 1041 ft 3 kts 88°
2026-04-16 06:19 33.63988 -84.42098 1041 ft 3 kts 88°
2026-04-16 06:20 33.63987 -84.42121 1041 ft 2 kts 89°
2026-04-16 06:20 33.63987 -84.42140 1041 ft 3 kts 102°
2026-04-16 06:20 33.63994 -84.42157 1041 ft 3 kts 154°
2026-04-16 06:20 33.64012 -84.42161 1041 ft 3 kts 182°
2026-04-16 06:21 33.64025 -84.42161 1041 ft 0 kts 179°
2026-04-16 06:23 33.64024 -84.42161 1041 ft 0 kts 179°
2026-04-16 06:23 33.64010 -84.42161 1041 ft 4 kts 179°
2026-04-16 06:24 33.63980 -84.42161 1041 ft 4 kts 179°
2026-04-16 06:24 33.63943 -84.42160 1041 ft 7 kts 179°
2026-04-16 06:24 33.63896 -84.42160 1041 ft 7 kts 179°
2026-04-16 06:24 33.63848 -84.42160 1041 ft 7 kts 179°
2026-04-16 06:25 33.63799 -84.42159 1041 ft 7 kts 179°
2026-04-16 06:25 33.63750 -84.42159 1041 ft 7 kts 179°
2026-04-16 06:25 33.63703 -84.42158 1041 ft 7 kts 176°
2026-04-16 06:25 33.63657 -84.42123 1041 ft 9 kts 115°
2026-04-16 06:26 33.63656 -84.42045 1041 ft 12 kts 87°
2026-04-16 06:26 33.63657 -84.41934 1040 ft 15 kts 91°
2026-04-16 06:26 33.63656 -84.41807 1040 ft 16 kts 90°
2026-04-16 06:26 33.63654 -84.41670 1040 ft 18 kts 91°
2026-04-16 06:27 33.63655 -84.41515 1040 ft 19 kts 89°
2026-04-16 06:27 33.63656 -84.41333 1040 ft 24 kts 90°
2026-04-16 06:27 33.63656 -84.41135 1040 ft 23 kts 89°
2026-04-16 06:27 33.63656 -84.40947 1040 ft 22 kts 90°
2026-04-16 06:28 33.63646 -84.40772 1042 ft 16 kts 119°
2026-04-16 06:28 33.63578 -84.40749 1041 ft 10 kts 182°
2026-04-16 06:28 33.63508 -84.40751 1041 ft 10 kts 184°
2026-04-16 06:28 33.63475 -84.40794 1041 ft 6 kts 259°
2026-04-16 06:29 33.63472 -84.40881 1041 ft 29 kts 269°
2026-04-16 06:29 33.63471 -84.41451 1041 ft 107 kts 270°
2026-04-16 06:29 33.63472 -84.42630 1043 ft 174 kts 270°
2026-04-16 06:29 33.63495 -84.44206 1526 ft 195 kts 274°
2026-04-16 06:30 33.63544 -84.45841 2536 ft 198 kts 270°
2026-04-16 06:30 33.63492 -84.47595 3087 ft 222 kts 265°
2026-04-16 06:30 33.63449 -84.49557 3528 ft 248 kts 269°
2026-04-16 06:30 33.63938 -84.51584 4310 ft 261 kts 297°
2026-04-16 06:31 33.65121 -84.53257 5382 ft 268 kts 313°
2026-04-16 06:31 33.66464 -84.54848 6342 ft 274 kts 313°
2026-04-16 06:31 33.67841 -84.56465 7266 ft 280 kts 313°
2026-04-16 06:31 33.69456 -84.57795 8158 ft 289 kts 339°
2026-04-16 06:32 33.71456 -84.58201 9051 ft 297 kts
2026-04-16 06:32 33.73551 -84.58147 9965 ft 304 kts 359°
2026-04-16 06:32 33.75683 -84.58128 10856 ft 309 kts 359°
2026-04-16 06:32 33.77843 -84.58109 11722 ft 313 kts 359°
2026-04-16 06:33 33.80040 -84.58070 12608 ft 318 kts
2026-04-16 06:33 33.82190 -84.57368 13355 ft 329 kts 25°
2026-04-16 06:33 33.84314 -84.56060 13646 ft 354 kts 29°
2026-04-16 06:33 33.86506 -84.54510 14007 ft 378 kts 30°
2026-04-16 06:34 33.88863 -84.52884 14242 ft 400 kts 28°
2026-04-16 06:34 33.91280 -84.51310 15097 ft 402 kts 27°
2026-04-16 06:34 33.93760 -84.49687 15843 ft 408 kts 28°
2026-04-16 06:34 33.96253 -84.48012 16595 ft 413 kts 28°
2026-04-16 06:35 33.98774 -84.46314 17332 ft 418 kts 28°
2026-04-16 06:35 34.01335 -84.44608 18067 ft 423 kts 27°
2026-04-16 06:35 34.03929 -84.42883 18723 ft 428 kts 27°
2026-04-16 06:35 34.06547 -84.41132 19341 ft 433 kts 27°
2026-04-16 06:36 34.09192 -84.39358 19959 ft 437 kts 27°
2026-04-16 06:36 34.11866 -84.37568 20567 ft 442 kts 27°
2026-04-16 06:36 34.14569 -84.35759 21190 ft 446 kts 27°
2026-04-16 06:36 34.17299 -84.33929 21782 ft 451 kts 27°
2026-04-16 06:37 34.20057 -84.32077 22350 ft 455 kts 27°
2026-04-16 06:37 34.22836 -84.30210 22915 ft 459 kts 27°
2026-04-16 06:37 34.25643 -84.28324 23473 ft 464 kts 27°
2026-04-16 06:37 34.28486 -84.26576 23946 ft 466 kts 18°
2026-04-16 06:38 34.31602 -84.25523 24403 ft 465 kts
2026-04-16 06:38 34.34789 -84.24770 24828 ft 468 kts
2026-04-16 06:38 34.38003 -84.24034 25291 ft 471 kts
2026-04-16 06:38 34.41242 -84.23286 25741 ft 475 kts
2026-04-16 06:39 34.44492 -84.22517 26175 ft 478 kts
2026-04-16 06:39 34.47766 -84.21742 26617 ft 481 kts
2026-04-16 06:39 34.51063 -84.20971 27035 ft 484 kts
2026-04-16 06:39 34.54391 -84.20193 27454 ft 487 kts
2026-04-16 06:40 34.57686 -84.19417 27861 ft 490 kts
2026-04-16 06:40 34.61043 -84.18624 28275 ft 493 kts
2026-04-16 06:40 34.64429 -84.17827 28635 ft 497 kts
2026-04-16 06:40 34.67837 -84.17025 29058 ft 499 kts
2026-04-16 06:41 34.71257 -84.16218 29442 ft 502 kts
2026-04-16 06:41 34.74697 -84.15405 29802 ft 505 kts
2026-04-16 06:41 34.78149 -84.14501 30160 ft 509 kts
2026-04-16 06:41 34.81611 -84.13527 30454 ft 512 kts
2026-04-16 06:42 34.85096 -84.12596 30749 ft 514 kts
2026-04-16 06:42 34.88592 -84.11637 31040 ft 517 kts
2026-04-16 06:42 34.92104 -84.10642 31307 ft 519 kts
2026-04-16 06:42 34.95639 -84.09647 31591 ft 521 kts
2026-04-16 06:43 34.99181 -84.08671 31843 ft 524 kts
2026-04-16 06:43 35.02741 -84.07686 32103 ft 526 kts
2026-04-16 06:43 35.06317 -84.06684 32372 ft 528 kts
2026-04-16 06:43 35.09907 -84.05676 32630 ft 530 kts
2026-04-16 06:44 35.13507 -84.04672 32893 ft 532 kts
2026-04-16 06:44 35.17125 -84.03663 33209 ft 532 kts
2026-04-16 06:44 35.20730 -84.02653 33579 ft 532 kts
2026-04-16 06:44 35.24332 -84.01640 33944 ft 531 kts
2026-04-16 06:45 35.27881 -84.00645 34267 ft 530 kts
2026-04-16 06:45 35.31479 -83.99638 34570 ft 529 kts
2026-04-16 06:45 35.35063 -83.98629 34908 ft 527 kts
2026-04-16 06:45 35.38637 -83.97622 35219 ft 526 kts
2026-04-16 06:46 35.42194 -83.96621 35587 ft 523 kts
2026-04-16 06:46 35.45734 -83.95625 35896 ft 521 kts
2026-04-16 06:46 35.49261 -83.94631 36193 ft 519 kts
2026-04-16 06:46 35.52775 -83.93638 36518 ft 517 kts
2026-04-16 06:47 35.56272 -83.92649 36854 ft 515 kts
2026-04-16 06:47 35.59764 -83.91662 37110 ft 515 kts
2026-04-16 06:47 35.66769 -83.89679 37104 ft 513 kts
2026-04-16 06:48 35.73655 -83.87725 37107 ft 509 kts
2026-04-16 06:48 35.80502 -83.85377 37147 ft 518 kts 18°
2026-04-16 06:49 35.86959 -83.81139 37125 ft 528 kts 23°
2026-04-16 06:49 35.93382 -83.76733 37132 ft 528 kts 23°
2026-04-16 06:50 35.99802 -83.72324 37123 ft 528 kts 23°
2026-04-16 06:50 36.06220 -83.67909 37115 ft 528 kts 23°
2026-04-16 06:51 36.12638 -83.63483 37119 ft 528 kts 23°
2026-04-16 06:51 36.19045 -83.59059 37126 ft 527 kts 23°
2026-04-16 06:52 36.25447 -83.54628 37135 ft 527 kts 23°
2026-04-16 06:52 36.31793 -83.50229 37129 ft 527 kts 23°
2026-04-16 06:53 36.38155 -83.45809 37120 ft 528 kts 23°
2026-04-16 06:53 36.44486 -83.41403 37111 ft 528 kts 23°
2026-04-16 06:54 36.50886 -83.36941 37094 ft 527 kts 23°
2026-04-16 06:54 36.57295 -83.32464 37082 ft 528 kts 23°
2026-04-16 06:55 36.63707 -83.27976 37084 ft 528 kts 23°
2026-04-16 06:55 36.70076 -83.23509 37082 ft 528 kts 24°
2026-04-16 06:56 36.76449 -83.19031 37086 ft 528 kts 24°
2026-04-16 06:56 36.82843 -83.14529 37074 ft 528 kts 24°
2026-04-16 06:57 36.89244 -83.10016 37078 ft 528 kts 24°
2026-04-16 06:57 36.95404 -83.04956 37094 ft 539 kts 39°
2026-04-16 06:58 36.97979 -83.01513 37099 ft 545 kts 50°
2026-04-16 06:58 37.00321 -82.97780 37085 ft 546 kts 49°
2026-04-16 06:58 37.04956 -82.90312 37098 ft 545 kts 49°
2026-04-16 06:59 37.09615 -82.82811 37116 ft 545 kts 50°
2026-04-16 06:59 37.14096 -82.75214 37115 ft 545 kts 50°
2026-04-16 07:00 37.18651 -82.67630 37117 ft 543 kts 50°
2026-04-16 07:01 37.25422 -82.56217 37087 ft 543 kts 50°
2026-04-16 07:01 37.29913 -82.48682 37066 ft 543 kts 50°
2026-04-16 07:02 37.34413 -82.41062 37070 ft 543 kts 50°
2026-04-16 07:02 37.38867 -82.33533 37068 ft 543 kts 50°
2026-04-16 07:03 37.43372 -82.25885 37066 ft 544 kts 50°
2026-04-16 07:03 37.47843 -82.18281 37051 ft 543 kts 50°
2026-04-16 07:04 37.51545 -82.10057 37061 ft 548 kts 71°
2026-04-16 07:04 37.54056 -82.00965 37038 ft 550 kts 70°
2026-04-16 07:05 37.56551 -81.91854 37043 ft 549 kts 70°
2026-04-16 07:05 37.59053 -81.82744 37050 ft 549 kts 70°
2026-04-16 07:06 37.61533 -81.73632 37045 ft 549 kts 70°
2026-04-16 07:06 37.64017 -81.64513 37044 ft 550 kts 70°
2026-04-16 07:07 37.66487 -81.55386 37049 ft 550 kts 70°
2026-04-16 07:07 37.68957 -81.46240 37072 ft 549 kts 70°
2026-04-16 07:08 37.71398 -81.37165 37106 ft 550 kts 70°
2026-04-16 07:08 37.73851 -81.28018 37131 ft 549 kts 70°
2026-04-16 07:09 37.76293 -81.18877 37143 ft 548 kts 70°
2026-04-16 07:09 37.78447 -81.11357 37159 ft 546 kts 60°
2026-04-16 07:10 37.81965 -81.02835 37146 ft 547 kts 60°
2026-04-16 07:10 37.86059 -80.92908 37114 ft 547 kts 60°
2026-04-16 07:11 37.88955 -80.85864 37094 ft 546 kts 60°
2026-04-16 07:11 37.92458 -80.77337 37064 ft 546 kts 60°
2026-04-16 07:12 37.95949 -80.68796 37085 ft 545 kts 60°
2026-04-16 07:12 37.99423 -80.60289 37085 ft 546 kts 60°
2026-04-16 07:13 38.02912 -80.51712 37102 ft 547 kts 60°
2026-04-16 07:13 38.06394 -80.43133 37102 ft 546 kts 60°
2026-04-16 07:14 38.09848 -80.34600 37089 ft 547 kts 60°
2026-04-16 07:14 38.13321 -80.25993 37077 ft 547 kts 60°
2026-04-16 07:15 38.16786 -80.17386 37076 ft 547 kts 60°
2026-04-16 07:15 38.20240 -80.08780 37090 ft 546 kts 61°
2026-04-16 07:16 38.23687 -80.00169 37084 ft 546 kts 61°
2026-04-16 07:16 38.27124 -79.91558 37083 ft 545 kts 61°
2026-04-16 07:17 38.30530 -79.83002 37074 ft 545 kts 61°
2026-04-16 07:17 38.33947 -79.74395 37077 ft 545 kts 61°
2026-04-16 07:18 38.37363 -79.65765 37067 ft 545 kts 61°
2026-04-16 07:18 38.40776 -79.57121 37066 ft 546 kts 61°
2026-04-16 07:19 38.44186 -79.48457 37063 ft 546 kts 61°
2026-04-16 07:19 38.47573 -79.39830 37051 ft 546 kts 61°
2026-04-16 07:20 38.50965 -79.31164 37029 ft 546 kts 61°
2026-04-16 07:20 38.54356 -79.22476 37024 ft 546 kts 61°
2026-04-16 07:21 38.57739 -79.13782 37026 ft 545 kts 61°
2026-04-16 07:21 38.61112 -79.05093 37024 ft 546 kts 61°
2026-04-16 07:22 38.64480 -78.96393 37024 ft 546 kts 61°
2026-04-16 07:22 38.67819 -78.87737 37015 ft 545 kts 61°
2026-04-16 07:23 38.71180 -78.79006 37010 ft 546 kts 61°
2026-04-16 07:23 38.74528 -78.70278 37011 ft 546 kts 61°
2026-04-16 07:24 38.77873 -78.61537 37013 ft 546 kts 61°
2026-04-16 07:24 38.81212 -78.52783 37013 ft 545 kts 61°
2026-04-16 07:25 38.84516 -78.44100 36986 ft 545 kts 61°
2026-04-16 07:25 38.87836 -78.35346 36991 ft 545 kts 61°
2026-04-16 07:26 38.91146 -78.26595 36980 ft 544 kts 61°
2026-04-16 07:26 38.94445 -78.17846 36981 ft 544 kts 61°
2026-04-16 07:27 38.97733 -78.09101 36979 ft 543 kts 61°
2026-04-16 07:27 39.01014 -78.00352 36979 ft 543 kts 61°
2026-04-16 07:28 39.04286 -77.91599 36979 ft 542 kts 61°
2026-04-16 07:28 39.07880 -77.83146 36983 ft 537 kts 53°
2026-04-16 07:29 39.11906 -77.75011 36996 ft 539 kts 53°
2026-04-16 07:29 39.15893 -77.66907 36996 ft 538 kts 53°
2026-04-16 07:30 39.19899 -77.58761 36998 ft 538 kts 53°
2026-04-16 07:30 39.23894 -77.50607 36997 ft 537 kts 53°
2026-04-16 07:31 39.27883 -77.42449 36998 ft 536 kts 53°
2026-04-16 07:31 39.31862 -77.34288 36997 ft 537 kts 53°
2026-04-16 07:32 39.35838 -77.26114 36999 ft 538 kts 53°
2026-04-16 07:32 39.39786 -77.17975 37001 ft 537 kts 53°
2026-04-16 07:33 39.43752 -77.09780 37001 ft 538 kts 53°
2026-04-16 07:33 39.47718 -77.01561 36993 ft 538 kts 53°
2026-04-16 07:34 39.51016 -76.92825 36985 ft 546 kts 65°
2026-04-16 07:34 39.53730 -76.83634 36987 ft 546 kts 66°
2026-04-16 07:35 39.56464 -76.74442 36987 ft 547 kts 66°
2026-04-16 07:35 39.59181 -76.65233 36981 ft 546 kts 66°
2026-04-16 07:36 39.61892 -76.56026 36976 ft 546 kts 66°
2026-04-16 07:36 39.64580 -76.46866 36977 ft 546 kts 66°
2026-04-16 07:37 39.67274 -76.37647 36975 ft 546 kts 66°
2026-04-16 07:37 39.69958 -76.28435 36972 ft 545 kts 66°
2026-04-16 07:38 39.72634 -76.19215 36973 ft 545 kts 66°
2026-04-16 07:38 39.75300 -76.10000 36970 ft 544 kts 66°
2026-04-16 07:39 39.77954 -76.00793 36968 ft 543 kts 66°
2026-04-16 07:39 39.80596 -75.91598 36972 ft 542 kts 66°
2026-04-16 07:40 39.83210 -75.82465 36974 ft 542 kts 66°
2026-04-16 07:40 39.85835 -75.73265 36978 ft 542 kts 66°
2026-04-16 07:41 39.88452 -75.64058 36979 ft 542 kts 66°
2026-04-16 07:41 39.91063 -75.54840 36978 ft 542 kts 66°
2026-04-16 07:42 39.93665 -75.45620 36980 ft 542 kts 66°
2026-04-16 07:42 39.96264 -75.36378 36969 ft 542 kts 66°
2026-04-16 07:43 39.98852 -75.27141 36972 ft 542 kts 66°
2026-04-16 07:43 40.01414 -75.17966 36961 ft 540 kts 66°
2026-04-16 07:44 40.03975 -75.08761 36968 ft 539 kts 66°
2026-04-16 07:44 40.06525 -74.99562 36968 ft 538 kts 66°
2026-04-16 07:45 40.09066 -74.90365 36969 ft 538 kts 66°
2026-04-16 07:45 40.11598 -74.81163 36964 ft 538 kts 66°
2026-04-16 07:46 40.14126 -74.71945 36952 ft 538 kts 66°
2026-04-16 07:46 40.16641 -74.62740 36961 ft 537 kts 66°
2026-04-16 07:47 40.19286 -74.53631 36979 ft 531 kts 57°
2026-04-16 07:47 40.21218 -74.49556 36978 ft 524 kts 46°
2026-04-16 07:47 40.23614 -74.46024 36984 ft 515 kts 36°
2026-04-16 07:48 40.29050 -74.40094 36960 ft 511 kts 33°
2026-04-16 07:48 40.34562 -74.34212 36960 ft 511 kts 32°
2026-04-16 07:49 40.40071 -74.28297 36962 ft 511 kts 33°
2026-04-16 07:49 40.45581 -74.22377 36960 ft 511 kts 33°
2026-04-16 07:50 40.51089 -74.16443 36962 ft 511 kts 33°
2026-04-16 07:50 40.56545 -74.10554 36957 ft 511 kts 33°
2026-04-16 07:51 40.62040 -74.04610 36961 ft 511 kts 33°
2026-04-16 07:51 40.67527 -73.98661 36962 ft 510 kts 33°
2026-04-16 07:52 40.73003 -73.92711 36963 ft 510 kts 33°
2026-04-16 07:52 40.78481 -73.86746 36941 ft 510 kts 33°
2026-04-16 07:53 40.83958 -73.80768 36952 ft 511 kts 33°
2026-04-16 07:53 40.86527 -73.77482 36978 ft 519 kts 44°
2026-04-16 07:53 40.88710 -73.73634 36968 ft 525 kts 49°
2026-04-16 07:54 40.92893 -73.65782 36982 ft 526 kts 49°
2026-04-16 07:54 40.97090 -73.57853 36984 ft 526 kts 49°
2026-04-16 07:55 41.01286 -73.49925 36979 ft 526 kts 49°
2026-04-16 07:55 41.05474 -73.41980 36978 ft 526 kts 49°
2026-04-16 07:56 41.09653 -73.34038 36961 ft 525 kts 49°
2026-04-16 07:56 41.13817 -73.26101 36954 ft 524 kts 49°
2026-04-16 07:57 41.17974 -73.18158 36964 ft 524 kts 50°
2026-04-16 07:57 41.22098 -73.10258 36970 ft 523 kts 50°
2026-04-16 07:58 41.26234 -73.02313 36971 ft 523 kts 50°
2026-04-16 07:58 41.30228 -72.94232 36975 ft 525 kts 54°
2026-04-16 07:59 41.33347 -72.87298 36956 ft 525 kts 54°
2026-04-16 07:59 41.37088 -72.78969 36956 ft 524 kts 54°
2026-04-16 08:00 41.40816 -72.70622 36953 ft 524 kts 54°
2026-04-16 08:00 41.44538 -72.62285 36988 ft 523 kts 55°
2026-04-16 08:01 41.48249 -72.53937 36992 ft 522 kts 55°
2026-04-16 08:01 41.51946 -72.45605 36978 ft 522 kts 55°
2026-04-16 08:02 41.55630 -72.37274 36973 ft 521 kts 55°
2026-04-16 08:02 41.61148 -72.24757 36953 ft 520 kts 55°
2026-04-16 08:03 41.64810 -72.16419 36956 ft 520 kts 55°
2026-04-16 08:03 41.68452 -72.08107 36955 ft 522 kts 56°
2026-04-16 08:04 41.72121 -71.99706 36958 ft 523 kts 56°
2026-04-16 08:04 41.75793 -71.91276 36955 ft 525 kts 56°
2026-04-16 08:05 41.79471 -71.82809 36969 ft 525 kts 56°
2026-04-16 08:05 41.83703 -71.74927 36967 ft 520 kts 47°
2026-04-16 08:06 41.88153 -71.67343 36969 ft 521 kts 47°
2026-04-16 08:06 41.92641 -71.59679 36967 ft 522 kts 47°
2026-04-16 08:07 41.97116 -71.52013 36969 ft 521 kts 47°
2026-04-16 08:07 42.01585 -71.44343 36972 ft 521 kts 47°
2026-04-16 08:08 42.06044 -71.36666 36977 ft 520 kts 47°
2026-04-16 08:08 42.10495 -71.28986 37010 ft 520 kts 47°
2026-04-16 08:09 42.14944 -71.21289 37008 ft 520 kts 47°
2026-04-16 08:09 42.19390 -71.13578 37010 ft 522 kts 47°
2026-04-16 08:10 42.23849 -71.05823 37007 ft 523 kts 47°
2026-04-16 08:10 42.28275 -70.98107 37009 ft 523 kts 47°
2026-04-16 08:11 42.32731 -70.90318 37005 ft 525 kts 47°
2026-04-16 08:11 42.37189 -70.82503 37000 ft 525 kts 47°
2026-04-16 08:12 42.41644 -70.74676 36994 ft 524 kts 47°
2026-04-16 08:12 42.46090 -70.66844 36988 ft 525 kts 47°
2026-04-16 08:13 42.50538 -70.58986 36985 ft 525 kts 47°
2026-04-16 08:13 42.54980 -70.51120 36970 ft 526 kts 47°
2026-04-16 08:14 42.59428 -70.43220 36975 ft 526 kts 47°
2026-04-16 08:14 42.63865 -70.35321 36972 ft 526 kts 47°
2026-04-16 08:15 42.68266 -70.27465 36959 ft 526 kts 47°
2026-04-16 08:15 42.72688 -70.19552 36967 ft 525 kts 47°
2026-04-16 08:16 42.77108 -70.11619 36972 ft 525 kts 47°
2026-04-16 08:16 42.81520 -70.03680 36980 ft 525 kts 47°
2026-04-16 08:17 42.85927 -69.95728 36984 ft 525 kts 47°
2026-04-16 08:17 42.90297 -69.87822 36987 ft 525 kts 47°
2026-04-16 08:19 43.07879 -69.55801 36998 ft 529 kts 46°
2026-04-16 08:20 43.12256 -69.47776 36999 ft 530 kts 46°
2026-04-16 08:20 43.16668 -69.39664 36998 ft 530 kts 46°
2026-04-16 08:21 43.21065 -69.31556 37005 ft 529 kts 46°
2026-04-16 08:21 43.25458 -69.23437 37006 ft 530 kts 46°
2026-04-16 08:22 43.29845 -69.15302 37009 ft 530 kts 46°
2026-04-16 08:22 43.34229 -69.07154 37006 ft 531 kts 46°
2026-04-16 08:23 43.38606 -68.98994 37015 ft 530 kts 46°
2026-04-16 08:23 43.42947 -68.90880 37012 ft 530 kts 46°
2026-04-16 08:24 43.47300 -68.82721 37011 ft 528 kts 46°
2026-04-16 08:24 43.51644 -68.74556 37013 ft 528 kts 46°
2026-04-16 08:25 43.55972 -68.66396 37012 ft 527 kts 46°
2026-04-16 08:25 43.60286 -68.58244 37019 ft 526 kts 46°
2026-04-16 08:26 43.64611 -68.50048 37019 ft 528 kts 46°
2026-04-16 08:26 43.68938 -68.41822 37022 ft 530 kts 46°
2026-04-16 08:27 43.73269 -68.33569 37023 ft 531 kts 46°
2026-04-16 08:27 43.77572 -68.25343 37020 ft 531 kts 46°
2026-04-16 08:28 43.81896 -68.17055 37021 ft 531 kts 46°
2026-04-16 08:28 43.86224 -68.08735 37020 ft 532 kts 46°
2026-04-16 08:29 43.90547 -68.00401 37009 ft 532 kts 46°
2026-04-16 08:29 43.94867 -67.92051 37024 ft 533 kts 46°
2026-04-16 08:30 43.99190 -67.83669 37024 ft 534 kts 46°
2026-04-16 08:30 44.03513 -67.75264 37020 ft 535 kts 46°
2026-04-16 08:31 44.07842 -67.66823 37019 ft 536 kts 46°
2026-04-16 08:31 44.12144 -67.58410 37026 ft 538 kts 46°
2026-04-16 08:32 44.16477 -67.49909 37023 ft 538 kts 46°
2026-04-16 08:32 44.20816 -67.41375 37020 ft 539 kts 46°
2026-04-16 08:33 44.25146 -67.32832 37021 ft 539 kts 46°
2026-04-16 08:33 44.29469 -67.24278 37023 ft 539 kts 46°
2026-04-16 08:34 44.33792 -67.15698 37027 ft 540 kts 46°
2026-04-16 08:34 44.38107 -67.07110 37023 ft 540 kts 46°
2026-04-16 08:35 44.42269 -66.98338 37047 ft 549 kts 56°
2026-04-16 08:35 44.45730 -66.88784 37014 ft 551 kts 56°
2026-04-16 08:36 44.49156 -66.79251 37024 ft 551 kts 56°
2026-04-16 08:36 44.52603 -66.69666 37028 ft 551 kts 56°
2026-04-16 08:37 44.56044 -66.60037 37025 ft 552 kts 56°
2026-04-16 08:37 44.59481 -66.50402 37026 ft 552 kts 56°
2026-04-16 08:38 44.62903 -66.40765 37033 ft 551 kts 56°
2026-04-16 08:38 44.66295 -66.31185 37033 ft 552 kts 56°
2026-04-16 08:39 44.69722 -66.21467 37031 ft 551 kts 56°
2026-04-16 08:39 44.73095 -66.11872 37022 ft 551 kts 56°
2026-04-16 08:40 44.76482 -66.02198 37028 ft 551 kts 56°
2026-04-16 08:40 44.79860 -65.92520 37036 ft 551 kts 56°
2026-04-16 08:41 44.83230 -65.82827 37035 ft 551 kts 56°
2026-04-16 08:41 44.86590 -65.73128 37037 ft 551 kts 56°
2026-04-16 08:42 44.89942 -65.63421 37034 ft 551 kts 56°
2026-04-16 08:42 44.93268 -65.53749 37043 ft 551 kts 56°
2026-04-16 08:43 44.96606 -65.44011 37042 ft 551 kts 56°
2026-04-16 08:43 44.99941 -65.34244 37045 ft 552 kts 56°
2026-04-16 08:44 45.03269 -65.24461 37045 ft 552 kts 56°
2026-04-16 08:44 45.06591 -65.14659 37052 ft 552 kts 56°
2026-04-16 08:45 45.09910 -65.04832 37051 ft 553 kts 56°
2026-04-16 08:45 45.13196 -64.95067 37053 ft 554 kts 56°
2026-04-16 08:46 45.16499 -64.85213 37057 ft 553 kts 56°
2026-04-16 08:46 45.19795 -64.75343 37053 ft 554 kts 56°
2026-04-16 08:47 45.23080 -64.65470 37047 ft 553 kts 56°
2026-04-16 08:47 45.26359 -64.55580 37049 ft 553 kts 56°
2026-04-16 08:48 45.29631 -64.45671 37055 ft 554 kts 56°
2026-04-16 08:48 45.32869 -64.35828 37057 ft 553 kts 57°
2026-04-16 08:49 45.36123 -64.25901 37054 ft 554 kts 57°
2026-04-16 08:49 45.38841 -64.17578 37057 ft 553 kts 57°
2026-04-16 08:50 45.42057 -64.07700 37053 ft 553 kts 57°
2026-04-16 08:50 45.45283 -63.97748 37052 ft 553 kts 57°
2026-04-16 08:51 45.48503 -63.87781 37058 ft 553 kts 57°
2026-04-16 08:51 45.51716 -63.77795 37064 ft 554 kts 57°
2026-04-16 08:52 45.54919 -63.67804 37064 ft 554 kts 57°
2026-04-16 08:52 45.58093 -63.57863 37070 ft 554 kts 57°
2026-04-16 08:53 45.61279 -63.47844 37067 ft 554 kts 57°
2026-04-16 08:53 45.64458 -63.37814 37057 ft 554 kts 57°
2026-04-16 08:54 45.67624 -63.27778 37064 ft 554 kts 58°
2026-04-16 08:54 45.70788 -63.17715 37065 ft 555 kts 58°
2026-04-16 08:55 45.73927 -63.07689 37064 ft 555 kts 58°
2026-04-16 08:55 45.77079 -62.97586 37067 ft 555 kts 58°
2026-04-16 08:56 45.80218 -62.87479 37074 ft 555 kts 58°
2026-04-16 08:56 45.83350 -62.77359 37070 ft 555 kts 58°
2026-04-16 08:57 45.86472 -62.67231 37070 ft 554 kts 58°
2026-04-16 08:57 45.89578 -62.57110 37076 ft 553 kts 58°
2026-04-16 08:58 45.92672 -62.46995 37074 ft 553 kts 58°
2026-04-16 08:58 45.95734 -62.36938 37069 ft 553 kts 58°
2026-04-16 08:59 45.98805 -62.26816 37064 ft 552 kts 58°
2026-04-16 08:59 46.01868 -62.16675 37062 ft 552 kts 58°
2026-04-16 09:00 46.04920 -62.06532 37065 ft 552 kts 58°
2026-04-16 09:00 46.07960 -61.96386 37060 ft 552 kts 58°
2026-04-16 09:01 46.12497 -61.81169 37062 ft 550 kts 58°
2026-04-16 09:02 46.15507 -61.71023 37053 ft 550 kts 58°
2026-04-16 09:02 46.18483 -61.60947 37046 ft 549 kts 58°
2026-04-16 09:03 46.21467 -61.50809 37054 ft 549 kts 58°
2026-04-16 09:03 46.24448 -61.40637 37059 ft 549 kts 59°
2026-04-16 09:04 46.27416 -61.30465 37058 ft 549 kts 59°
2026-04-16 09:04 46.30378 -61.20275 37061 ft 549 kts 59°
2026-04-16 09:05 46.33332 -61.10068 37063 ft 549 kts 59°
2026-04-16 09:05 46.36251 -60.99937 37065 ft 548 kts 59°
2026-04-16 09:06 46.39186 -60.89718 37075 ft 550 kts 59°
2026-04-16 09:06 46.42113 -60.79472 37086 ft 550 kts 59°
2026-04-16 09:07 46.45034 -60.69214 37094 ft 550 kts 59°
2026-04-16 09:07 46.47942 -60.58948 37104 ft 550 kts 59°
2026-04-16 09:08 46.50839 -60.48686 37111 ft 550 kts 60°
2026-04-16 09:08 46.53724 -60.38421 37123 ft 549 kts 60°
2026-04-16 09:09 46.56598 -60.28150 37127 ft 548 kts 60°
2026-04-16 09:09 46.59444 -60.17938 37120 ft 548 kts 60°
2026-04-16 09:10 46.62292 -60.07673 37119 ft 547 kts 60°
2026-04-16 09:10 46.65130 -59.97404 37117 ft 547 kts 60°
2026-04-16 09:11 46.67954 -59.87136 37114 ft 545 kts 60°
2026-04-16 09:11 46.70766 -59.76871 37117 ft 544 kts 61°
2026-04-16 09:12 46.73562 -59.66621 37117 ft 544 kts 61°
2026-04-16 09:12 46.76346 -59.56373 37116 ft 544 kts 61°
2026-04-16 09:13 46.79106 -59.46162 37120 ft 543 kts 61°
2026-04-16 09:13 46.81868 -59.35904 37124 ft 542 kts 61°
2026-04-16 09:14 46.84618 -59.25647 37118 ft 542 kts 61°
2026-04-16 09:14 46.87360 -59.15373 37120 ft 542 kts 61°
2026-04-16 09:15 46.90092 -59.05092 37121 ft 542 kts 61°
2026-04-16 09:15 46.92814 -58.94807 37118 ft 542 kts 62°
2026-04-16 09:16 46.95530 -58.84492 37123 ft 543 kts 62°
2026-04-16 09:16 46.98222 -58.74227 37127 ft 543 kts 62°
2026-04-16 09:17 47.00926 -58.63872 37128 ft 544 kts 62°
2026-04-16 09:17 47.03624 -58.53492 37129 ft 545 kts 62°
2026-04-16 09:18 47.06316 -58.43088 37137 ft 545 kts 62°
2026-04-16 09:18 47.08995 -58.32686 37131 ft 544 kts 62°
2026-04-16 09:19 47.11647 -58.22346 37142 ft 544 kts 62°
2026-04-16 09:19 47.14310 -58.11912 37142 ft 545 kts 62°
2026-04-16 09:20 47.16961 -58.01481 37144 ft 545 kts 62°
2026-04-16 09:20 47.19601 -57.91042 37143 ft 545 kts 62°
2026-04-16 09:21 47.22231 -57.80599 37148 ft 545 kts 62°
2026-04-16 09:21 47.24850 -57.70147 37155 ft 544 kts 62°
2026-04-16 09:22 47.27442 -57.59756 37149 ft 544 kts 62°
2026-04-16 09:22 47.30040 -57.49297 37155 ft 544 kts 63°
2026-04-16 09:23 47.32627 -57.38831 37156 ft 543 kts 63°
2026-04-16 09:23 47.35202 -57.28363 37164 ft 543 kts 63°
2026-04-16 09:24 47.37756 -57.17934 37167 ft 543 kts 63°
2026-04-16 09:24 47.40293 -57.07523 37160 ft 542 kts 63°
2026-04-16 09:25 47.42828 -56.97075 37164 ft 542 kts 63°
2026-04-16 09:25 47.45360 -56.86586 37163 ft 541 kts 63°
2026-04-16 09:26 47.47862 -56.76174 37153 ft 540 kts 64°
2026-04-16 09:26 47.50349 -56.65779 37156 ft 539 kts 64°
2026-04-16 09:27 47.52838 -56.55320 37151 ft 538 kts 64°
2026-04-16 09:27 47.55315 -56.44866 37143 ft 538 kts 64°
2026-04-16 09:28 47.57762 -56.34488 37142 ft 536 kts 64°
2026-04-16 09:28 47.60209 -56.24061 37137 ft 535 kts 65°
2026-04-16 09:29 47.62641 -56.13646 37132 ft 535 kts 65°
2026-04-16 09:29 47.65062 -56.03229 37132 ft 534 kts 65°
2026-04-16 09:30 47.67471 -55.92811 37133 ft 533 kts 65°
2026-04-16 09:30 47.69866 -55.82408 37136 ft 533 kts 65°
2026-04-16 09:31 47.72251 -55.71997 37135 ft 532 kts 65°
2026-04-16 09:31 47.74622 -55.61596 37126 ft 532 kts 66°
2026-04-16 09:32 47.76983 -55.51185 37136 ft 531 kts 66°
2026-04-16 09:32 47.79334 -55.40773 37134 ft 531 kts 66°
2026-04-16 09:33 47.81670 -55.30373 37147 ft 530 kts 66°
2026-04-16 09:33 47.83980 -55.20039 37156 ft 530 kts 66°
2026-04-16 09:34 47.86299 -55.09610 37158 ft 530 kts 66°
2026-04-16 09:34 47.88605 -54.99189 37170 ft 529 kts 66°
2026-04-16 09:35 47.90899 -54.88774 37172 ft 528 kts 66°
2026-04-16 09:35 47.93180 -54.78364 37179 ft 528 kts 67°
2026-04-16 09:36 47.95449 -54.67958 37178 ft 527 kts 67°
2026-04-16 09:36 47.97707 -54.57548 37179 ft 527 kts 67°
2026-04-16 09:37 47.99578 -54.48883 37179 ft 527 kts 67°
2026-04-16 09:37 48.02177 -54.36784 37182 ft 526 kts 67°
2026-04-16 09:38 48.04039 -54.28072 37181 ft 525 kts 67°
2026-04-16 09:38 48.06239 -54.17731 37191 ft 525 kts 68°
2026-04-16 09:39 48.08442 -54.07328 37185 ft 525 kts 68°
2026-04-16 09:39 48.10634 -53.96919 37185 ft 524 kts 68°
2026-04-16 09:40 48.12816 -53.86503 37182 ft 524 kts 68°
2026-04-16 09:40 48.14986 -53.76093 37184 ft 524 kts 68°
2026-04-16 09:41 48.17145 -53.65680 37185 ft 523 kts 68°
2026-04-16 09:41 48.19294 -53.55259 37184 ft 523 kts 68°
2026-04-16 09:42 48.21435 -53.44824 37181 ft 523 kts 68°
2026-04-16 09:42 48.23551 -53.34464 37185 ft 523 kts 68°
2026-04-16 09:43 48.25670 -53.24028 37196 ft 523 kts 68°
2026-04-16 09:43 48.27780 -53.13578 37189 ft 523 kts 68°
2026-04-16 09:44 48.29880 -53.03126 37185 ft 522 kts 69°
2026-04-16 09:44 48.31967 -52.92679 37180 ft 521 kts 69°
2026-04-16 09:45 48.34040 -52.82255 37180 ft 520 kts 69°
2026-04-16 09:45 48.36103 -52.71821 37186 ft 521 kts 69°
2026-04-16 09:46 48.38147 -52.61423 37191 ft 522 kts 69°
2026-04-16 09:46 48.40196 -52.50950 37190 ft 522 kts 69°
2026-04-16 09:47 48.42234 -52.40469 37192 ft 522 kts 69°
2026-04-16 09:47 48.44264 -52.29977 37193 ft 522 kts 69°
2026-04-16 09:48 48.46285 -52.19474 37195 ft 522 kts 69°
2026-04-16 09:48 48.48293 -52.08978 37193 ft 521 kts 69°
2026-04-16 09:49 48.50375 -51.98533 37205 ft 516 kts 63°
2026-04-16 09:49 48.53016 -51.88445 37188 ft 517 kts 64°
2026-04-16 09:50 48.55635 -51.78325 37197 ft 517 kts 64°
2026-04-16 09:50 48.58231 -51.68281 37195 ft 517 kts 64°
2026-04-16 09:51 48.60836 -51.58144 37201 ft 517 kts 64°
2026-04-16 09:51 48.63432 -51.47999 37200 ft 516 kts 64°
2026-04-16 09:52 48.66015 -51.37862 37201 ft 516 kts 64°
2026-04-16 09:52 48.68587 -51.27721 37200 ft 516 kts 64°
2026-04-16 09:53 48.71133 -51.17639 37201 ft 516 kts 64°
2026-04-16 09:53 48.73687 -51.07476 37204 ft 516 kts 64°
2026-04-16 09:54 48.76230 -50.97313 37208 ft 516 kts 64°
2026-04-16 09:54 48.78763 -50.87147 37206 ft 515 kts 64°
2026-04-16 09:55 48.81265 -50.77056 37195 ft 515 kts 64°
2026-04-16 09:55 48.83768 -50.66916 37210 ft 515 kts 64°
2026-04-16 09:56 48.86276 -50.56711 37206 ft 515 kts 65°
2026-04-16 09:56 48.88757 -50.46568 37207 ft 516 kts 65°
2026-04-16 09:57 48.91246 -50.36344 37205 ft 516 kts 65°
2026-04-16 09:57 48.93727 -50.26108 37211 ft 516 kts 65°
2026-04-16 09:58 48.96199 -50.15861 37205 ft 516 kts 65°
2026-04-16 09:58 48.98660 -50.05609 37208 ft 516 kts 65°
2026-04-16 09:59 49.00710 -49.95117 37199 ft 521 kts 73°
2026-04-16 09:59 49.02281 -49.84311 37210 ft 522 kts 73°
2026-04-16 10:00 49.03822 -49.73580 37210 ft 521 kts 73°
2026-04-16 10:00 49.05368 -49.62773 37211 ft 522 kts 73°
2026-04-16 10:01 49.07667 -49.46535 37211 ft 522 kts 73°
2026-04-16 10:01 49.09177 -49.35776 37211 ft 522 kts 73°
2026-04-16 10:02 49.10687 -49.24936 37210 ft 522 kts 74°
2026-04-16 10:02 49.12186 -49.14096 37208 ft 521 kts 74°
2026-04-16 10:03 49.13675 -49.03245 37217 ft 522 kts 74°
2026-04-16 10:03 49.15155 -48.92383 37220 ft 522 kts 74°
2026-04-16 10:04 49.16625 -48.81519 37221 ft 522 kts 74°
2026-04-16 10:04 49.18085 -48.70640 37207 ft 522 kts 74°
2026-04-16 10:05 49.19532 -48.59774 37212 ft 521 kts 74°
2026-04-16 10:05 49.20969 -48.48903 37216 ft 521 kts 75°
2026-04-16 10:06 49.22383 -48.38122 37214 ft 520 kts 75°
2026-04-16 10:06 49.23799 -48.27246 37214 ft 521 kts 75°
2026-04-16 10:07 49.25205 -48.16357 37212 ft 521 kts 75°
2026-04-16 10:07 49.26599 -48.05476 37209 ft 521 kts 75°
2026-04-16 10:08 49.27983 -47.94592 37212 ft 521 kts 75°
2026-04-16 10:08 49.29358 -47.83686 37214 ft 522 kts 75°
2026-04-16 10:09 49.30726 -47.72749 37210 ft 522 kts 75°
2026-04-16 10:09 49.32083 -47.61820 37209 ft 522 kts 75°
2026-04-16 10:10 49.33430 -47.50876 37208 ft 522 kts 76°
2026-04-16 10:10 49.34757 -47.40003 37208 ft 522 kts 76°
2026-04-16 10:11 49.36083 -47.29047 37193 ft 522 kts 76°
2026-04-16 10:11 49.37399 -47.18089 37205 ft 521 kts 76°
2026-04-16 10:12 49.38701 -47.07146 37205 ft 521 kts 76°
2026-04-16 10:12 49.39993 -46.96202 37202 ft 521 kts 76°
2026-04-16 10:13 49.41270 -46.85293 37202 ft 522 kts 76°
2026-04-16 10:13 49.42543 -46.74321 37196 ft 522 kts 76°
2026-04-16 10:14 49.43807 -46.63332 37196 ft 522 kts 76°
2026-04-16 10:14 49.45062 -46.52329 37194 ft 523 kts 77°
2026-04-16 10:15 49.46306 -46.41321 37196 ft 522 kts 77°
2026-04-16 10:15 49.47537 -46.30325 37192 ft 522 kts 77°
2026-04-16 10:16 49.48758 -46.19329 37188 ft 521 kts 77°
2026-04-16 10:16 49.49967 -46.08334 37186 ft 521 kts 77°
2026-04-16 10:17 49.51165 -45.97346 37188 ft 520 kts 77°
2026-04-16 10:17 49.52349 -45.86380 37190 ft 520 kts 77°
2026-04-16 10:18 49.53527 -45.75376 37188 ft 521 kts 77°
2026-04-16 10:18 49.54686 -45.64437 37186 ft 521 kts 78°
2026-04-16 10:19 49.55842 -45.53426 37178 ft 521 kts 78°
2026-04-16 10:19 49.56987 -45.42424 37178 ft 520 kts 78°
2026-04-16 10:20 49.58120 -45.31425 37181 ft 520 kts 78°
2026-04-16 10:20 49.59244 -45.20406 37174 ft 520 kts 78°
2026-04-16 10:21 49.60356 -45.09393 37176 ft 520 kts 78°
2026-04-16 10:21 49.61458 -44.98375 37174 ft 520 kts 78°
2026-04-16 10:22 49.62550 -44.87350 37172 ft 520 kts 78°
2026-04-16 10:22 49.63626 -44.76383 37170 ft 520 kts 78°
2026-04-16 10:23 49.64699 -44.65325 37169 ft 521 kts 78°
2026-04-16 10:23 49.65760 -44.54276 37168 ft 520 kts 79°
2026-04-16 10:24 49.66810 -44.43236 37162 ft 520 kts 79°
2026-04-16 10:24 49.67849 -44.32189 37157 ft 520 kts 79°
2026-04-16 10:25 49.68705 -44.23006 37160 ft 520 kts 79°
2026-04-16 10:25 49.69725 -44.11948 37149 ft 520 kts 79°
2026-04-16 10:26 49.70735 -44.00876 37153 ft 521 kts 79°
2026-04-16 10:26 49.71737 -43.89776 37146 ft 521 kts 79°
2026-04-16 10:27 49.72730 -43.78660 37153 ft 521 kts 79°
2026-04-16 10:27 49.73711 -43.67545 37148 ft 522 kts 80°
2026-04-16 10:28 49.74675 -43.56504 37151 ft 522 kts 80°
2026-04-16 10:28 49.75636 -43.45370 37143 ft 522 kts 80°
2026-04-16 10:29 49.76585 -43.34242 37145 ft 522 kts 80°
2026-04-16 10:29 49.77525 -43.23094 37138 ft 523 kts 80°
2026-04-16 10:30 49.78455 -43.11936 37141 ft 522 kts 81°
2026-04-16 10:30 49.79373 -43.00793 37142 ft 522 kts 81°
2026-04-16 10:31 49.80281 -42.89634 37138 ft 523 kts 81°
2026-04-16 10:31 49.81178 -42.78468 37136 ft 523 kts 81°
2026-04-16 10:32 49.82064 -42.67304 37137 ft 521 kts 81°
2026-04-16 10:32 49.82932 -42.56238 37130 ft 521 kts 81°
2026-04-16 10:33 49.83796 -42.45065 37132 ft 522 kts 81°
2026-04-16 10:33 49.84650 -42.33901 37127 ft 522 kts 81°
2026-04-16 10:34 49.85493 -42.22722 37130 ft 522 kts 81°
2026-04-16 10:34 49.86325 -42.11546 37122 ft 522 kts 82°
2026-04-16 10:35 49.87142 -42.00427 37127 ft 522 kts 82°
2026-04-16 10:35 49.87953 -41.89226 37120 ft 522 kts 82°
2026-04-16 10:36 49.88754 -41.78029 37121 ft 522 kts 82°
2026-04-16 10:36 49.89543 -41.66827 37121 ft 522 kts 82°
2026-04-16 10:37 49.90322 -41.55625 37120 ft 523 kts 82°
2026-04-16 10:37 49.91090 -41.44414 37110 ft 523 kts 82°
2026-04-16 10:38 49.91849 -41.33178 37114 ft 523 kts 82°
2026-04-16 10:38 49.92592 -41.22019 37109 ft 523 kts 82°
2026-04-16 10:39 49.93328 -41.10790 37112 ft 523 kts 83°
2026-04-16 10:39 49.94053 -40.99566 37107 ft 523 kts 83°
2026-04-16 10:40 49.94768 -40.88335 37109 ft 522 kts 83°
2026-04-16 10:40 49.95471 -40.77097 37107 ft 523 kts 83°
2026-04-16 10:41 49.96165 -40.65850 37107 ft 523 kts 83°
2026-04-16 10:41 49.96847 -40.54600 37094 ft 522 kts 83°
2026-04-16 10:42 49.97513 -40.43444 37100 ft 521 kts 83°
2026-04-16 10:42 49.98173 -40.32206 37106 ft 523 kts 83°
2026-04-16 10:43 49.98821 -40.20969 37096 ft 522 kts 84°
2026-04-16 10:43 49.99457 -40.09748 37104 ft 520 kts 84°
2026-04-16 10:44 50.00437 -39.98621 37123 ft 519 kts 70°
2026-04-16 10:44 50.02983 -39.88144 37107 ft 518 kts 66°
2026-04-16 10:45 50.05622 -39.77694 37094 ft 518 kts 66°
2026-04-16 10:45 50.08221 -39.67248 37096 ft 517 kts 66°
2026-04-16 10:46 50.10794 -39.56917 37078 ft 512 kts 65°
2026-04-16 10:46 50.13365 -39.46532 37083 ft 514 kts 66°
2026-04-16 10:47 50.15929 -39.36120 37088 ft 515 kts 66°
2026-04-16 10:47 50.18489 -39.25681 37088 ft 515 kts 66°
2026-04-16 10:48 50.21039 -39.15232 37087 ft 515 kts 66°
2026-04-16 10:48 50.23583 -39.04759 37086 ft 515 kts 66°
2026-04-16 10:49 50.26115 -38.94283 37080 ft 515 kts 66°
2026-04-16 10:49 50.28620 -38.83871 37078 ft 515 kts 66°
2026-04-16 10:50 50.31129 -38.73389 37079 ft 514 kts 66°
2026-04-16 10:50 50.33629 -38.62895 37077 ft 514 kts 66°
2026-04-16 10:51 50.36121 -38.52388 37074 ft 515 kts 66°
2026-04-16 10:51 50.38607 -38.41853 37076 ft 515 kts 67°
2026-04-16 10:52 50.41085 -38.31299 37076 ft 515 kts 67°
2026-04-16 10:52 50.43550 -38.20746 37070 ft 515 kts 67°
2026-04-16 10:53 50.45991 -38.10252 37062 ft 515 kts 67°
2026-04-16 10:53 50.48439 -37.99670 37059 ft 515 kts 67°
2026-04-16 10:54 50.50858 -37.89163 37060 ft 515 kts 67°
2026-04-16 10:54 50.53285 -37.78569 37058 ft 515 kts 67°
2026-04-16 10:55 50.55702 -37.67969 37057 ft 515 kts 68°
2026-04-16 10:55 50.58111 -37.57347 37057 ft 515 kts 68°
2026-04-16 10:56 50.60509 -37.46720 37054 ft 515 kts 68°
2026-04-16 10:56 50.62896 -37.36091 37048 ft 515 kts 68°
2026-04-16 10:57 50.65277 -37.25431 37043 ft 516 kts 68°
2026-04-16 10:57 50.67650 -37.14754 37044 ft 515 kts 68°
2026-04-16 10:58 50.69993 -37.04159 37047 ft 515 kts 68°
2026-04-16 10:58 50.72343 -36.93477 37034 ft 515 kts 68°
2026-04-16 10:59 50.74685 -36.82777 37028 ft 515 kts 68°
2026-04-16 10:59 50.77016 -36.72070 37028 ft 515 kts 68°
2026-04-16 11:00 50.79339 -36.61346 37025 ft 516 kts 69°
2026-04-16 11:00 50.81655 -36.50597 37027 ft 515 kts 69°
2026-04-16 11:01 50.83946 -36.39909 37026 ft 516 kts 69°
2026-04-16 11:01 50.86239 -36.29152 37016 ft 515 kts 69°
2026-04-16 11:02 50.88521 -36.18395 37012 ft 516 kts 69°
2026-04-16 11:02 50.90793 -36.07622 37011 ft 515 kts 69°
2026-04-16 11:03 50.93055 -35.96844 37004 ft 515 kts 69°
2026-04-16 11:04 50.96418 -35.80709 36997 ft 515 kts 69°
2026-04-16 11:04 50.98655 -35.69905 36994 ft 516 kts 70°
2026-04-16 11:05 51.00881 -35.59092 36988 ft 515 kts 70°
2026-04-16 11:05 51.03100 -35.48254 36999 ft 516 kts 70°
2026-04-16 11:06 51.05309 -35.37411 36984 ft 515 kts 70°
2026-04-16 11:06 51.07504 -35.26571 37001 ft 515 kts 70°
2026-04-16 11:07 51.09691 -35.15717 36994 ft 515 kts 70°
2026-04-16 11:07 51.11867 -35.04850 36985 ft 515 kts 70°
2026-04-16 11:08 51.14033 -34.93979 36987 ft 514 kts 71°
2026-04-16 11:08 51.16170 -34.83190 36981 ft 514 kts 71°
2026-04-16 11:09 51.18310 -34.72327 36979 ft 514 kts 71°
2026-04-16 11:09 51.20440 -34.61456 36975 ft 513 kts 71°
2026-04-16 11:10 51.22558 -34.50578 36971 ft 512 kts 71°
2026-04-16 11:10 51.24663 -34.39713 36964 ft 513 kts 71°
2026-04-16 11:11 51.26756 -34.28841 36964 ft 512 kts 71°
2026-04-16 11:11 51.28839 -34.17959 36958 ft 513 kts 71°
2026-04-16 11:12 51.30915 -34.07056 36956 ft 513 kts 72°
2026-04-16 11:12 51.32634 -33.97979 36950 ft 513 kts 72°
2026-04-16 11:13 51.34689 -33.87067 36949 ft 513 kts 72°
2026-04-16 11:13 51.36736 -33.76137 36944 ft 513 kts 72°
2026-04-16 11:14 51.38771 -33.65205 36938 ft 512 kts 72°
2026-04-16 11:14 51.40795 -33.54268 36934 ft 512 kts 72°
2026-04-16 11:15 51.42808 -33.43323 36928 ft 512 kts 72°
2026-04-16 11:15 51.44814 -33.32355 36928 ft 513 kts 72°
2026-04-16 11:16 51.46797 -33.21447 36921 ft 513 kts 72°
2026-04-16 11:16 51.48779 -33.10475 36919 ft 512 kts 73°
2026-04-16 11:17 51.50754 -32.99482 36913 ft 513 kts 73°
2026-04-16 11:17 51.52721 -32.88457 36909 ft 513 kts 73°
2026-04-16 11:18 51.54679 -32.77426 36906 ft 513 kts 73°
2026-04-16 11:18 51.56624 -32.66394 36896 ft 513 kts 73°
2026-04-16 11:19 51.58559 -32.55350 36897 ft 514 kts 73°
2026-04-16 11:19 51.60489 -32.44272 36891 ft 514 kts 73°
2026-04-16 11:20 51.62396 -32.33253 36884 ft 514 kts 73°
2026-04-16 11:20 51.64306 -32.22148 36880 ft 515 kts 73°
2026-04-16 11:21 51.66208 -32.11014 36875 ft 515 kts 74°
2026-04-16 11:21 51.68099 -31.99882 36872 ft 515 kts 74°
2026-04-16 11:22 51.69980 -31.88734 36867 ft 515 kts 74°
2026-04-16 11:22 51.71851 -31.77571 36862 ft 516 kts 74°
2026-04-16 11:23 51.73701 -31.66462 36858 ft 516 kts 74°
2026-04-16 11:23 51.75551 -31.55282 36849 ft 515 kts 74°
2026-04-16 11:24 51.77388 -31.44104 36848 ft 515 kts 74°
2026-04-16 11:24 51.79214 -31.32923 36841 ft 514 kts 75°
2026-04-16 11:25 51.81027 -31.21749 36837 ft 514 kts 75°
2026-04-16 11:25 51.82830 -31.10562 36837 ft 514 kts 75°
2026-04-16 11:26 51.84621 -30.99369 36827 ft 514 kts 75°
2026-04-16 11:26 51.86404 -30.88156 36823 ft 514 kts 75°
2026-04-16 11:27 51.88175 -30.76947 36819 ft 514 kts 75°
2026-04-16 11:27 51.89935 -30.65720 36815 ft 514 kts 75°
2026-04-16 11:28 51.91674 -30.54561 36811 ft 514 kts 75°
2026-04-16 11:28 51.93413 -30.43318 36810 ft 514 kts 75°
2026-04-16 11:29 51.95140 -30.32076 36804 ft 514 kts 76°
2026-04-16 11:29 51.96859 -30.20812 36797 ft 514 kts 76°
2026-04-16 11:30 51.98565 -30.09549 36793 ft 514 kts 76°
2026-04-16 11:30 52.00412 -29.98356 36798 ft 512 kts 66°
2026-04-16 11:31 52.03122 -29.87631 36785 ft 514 kts 66°
2026-04-16 11:31 52.05802 -29.76958 36775 ft 514 kts 67°
2026-04-16 11:32 52.08489 -29.66187 36770 ft 513 kts 67°
2026-04-16 11:32 52.11166 -29.55426 36766 ft 513 kts 67°
2026-04-16 11:33 52.13827 -29.44659 36757 ft 513 kts 67°
2026-04-16 11:33 52.16479 -29.33890 36757 ft 512 kts 68°
2026-04-16 11:34 52.19105 -29.23165 36747 ft 512 kts 68°
2026-04-16 11:34 52.21738 -29.12366 36740 ft 512 kts 68°
2026-04-16 11:35 52.24362 -29.01544 36731 ft 512 kts 68°
2026-04-16 11:35 52.26976 -28.90714 36729 ft 512 kts 68°
2026-04-16 11:36 52.29577 -28.79881 36727 ft 513 kts 68°
2026-04-16 11:36 52.32168 -28.69039 36716 ft 512 kts 68°
2026-04-16 11:37 52.34751 -28.58172 36711 ft 513 kts 68°
2026-04-16 11:37 52.37323 -28.47299 36701 ft 512 kts 68°
2026-04-16 11:38 52.39867 -28.36490 36699 ft 512 kts 69°
2026-04-16 11:38 52.42416 -28.25601 36693 ft 512 kts 69°
2026-04-16 11:39 52.44953 -28.14714 36691 ft 511 kts 69°
2026-04-16 11:39 52.47478 -28.03821 36685 ft 511 kts 69°
2026-04-16 11:40 52.49998 -27.92893 36674 ft 511 kts 69°
2026-04-16 11:40 52.52502 -27.81977 36674 ft 511 kts 69°
2026-04-16 11:41 52.54996 -27.71052 36662 ft 511 kts 69°
2026-04-16 11:41 52.57465 -27.60175 36660 ft 511 kts 70°
2026-04-16 11:42 52.59940 -27.49219 36638 ft 511 kts 70°
2026-04-16 11:42 52.62402 -27.38267 36635 ft 510 kts 70°
2026-04-16 11:43 52.64852 -27.27304 36646 ft 510 kts 70°
2026-04-16 11:43 52.67294 -27.16323 36635 ft 509 kts 70°
2026-04-16 11:44 52.69719 -27.05360 36634 ft 509 kts 70°
2026-04-16 11:44 52.72118 -26.94454 36629 ft 509 kts 70°
2026-04-16 11:45 52.74522 -26.83472 36620 ft 509 kts 70°
2026-04-16 11:45 52.76916 -26.72475 36624 ft 508 kts 71°
2026-04-16 11:46 52.79296 -26.61487 36619 ft 508 kts 71°
2026-04-16 11:46 52.81663 -26.50495 36614 ft 508 kts 71°
2026-04-16 11:47 52.84019 -26.39499 36607 ft 507 kts 71°
2026-04-16 11:47 52.86366 -26.28483 36605 ft 507 kts 71°
2026-04-16 11:48 52.88688 -26.17526 36599 ft 507 kts 71°
2026-04-16 11:48 52.91011 -26.06501 36603 ft 507 kts 71°
2026-04-16 11:49 52.93322 -25.95478 36589 ft 506 kts 71°
2026-04-16 11:49 52.95623 -25.84442 36589 ft 506 kts 71°
2026-04-16 11:50 52.97914 -25.73392 36583 ft 506 kts 72°
2026-04-16 11:50 53.00191 -25.62349 36581 ft 505 kts 72°
2026-04-16 11:51 53.02461 -25.51275 36579 ft 506 kts 72°
2026-04-16 11:51 53.04719 -25.40204 36571 ft 506 kts 72°
2026-04-16 11:52 53.06951 -25.29194 36572 ft 506 kts 72°
2026-04-16 11:52 53.09193 -25.18075 36569 ft 507 kts 72°
2026-04-16 11:53 53.11425 -25.06942 36567 ft 507 kts 72°
2026-04-16 11:53 53.13646 -24.95797 36564 ft 506 kts 72°
2026-04-16 11:54 53.15853 -24.84664 36561 ft 506 kts 73°
2026-04-16 11:54 53.18051 -24.73510 36559 ft 506 kts 73°
2026-04-16 11:55 53.20238 -24.62345 36558 ft 506 kts 73°
2026-04-16 11:55 53.22415 -24.51172 36557 ft 507 kts 73°
2026-04-16 11:56 53.24571 -24.40038 36555 ft 508 kts 73°
2026-04-16 11:56 53.26734 -24.28806 36558 ft 508 kts 73°
2026-04-16 11:57 53.28887 -24.17555 36554 ft 508 kts 73°
2026-04-16 11:57 53.31029 -24.06298 36554 ft 508 kts 73°
2026-04-16 11:58 53.33161 -23.95024 36557 ft 509 kts 74°
2026-04-16 11:58 53.35285 -23.83722 36556 ft 508 kts 74°
2026-04-16 11:59 53.37396 -23.72427 36552 ft 508 kts 74°
2026-04-16 11:59 53.39497 -23.61113 36554 ft 509 kts 74°
2026-04-16 12:00 53.41578 -23.49847 36551 ft 509 kts 74°
2026-04-16 12:00 53.43659 -23.38502 36553 ft 509 kts 75°
2026-04-16 12:01 53.45728 -23.27158 36552 ft 508 kts 75°
2026-04-16 12:01 53.47452 -23.17647 36552 ft 508 kts 75°
2026-04-16 12:02 53.50505 -23.00690 36543 ft 508 kts 75°
2026-04-16 12:02 53.52539 -22.89301 36548 ft 509 kts 75°
2026-04-16 12:03 53.54567 -22.77876 36547 ft 511 kts 75°
2026-04-16 12:03 53.56588 -22.66422 36547 ft 510 kts 75°
2026-04-16 12:04 53.58596 -22.54964 36543 ft 510 kts 75°
2026-04-16 12:04 53.60592 -22.43500 36549 ft 510 kts 75°
2026-04-16 12:05 53.62575 -22.32042 36540 ft 509 kts 76°
2026-04-16 12:05 53.64545 -22.20578 36543 ft 509 kts 76°
2026-04-16 12:06 53.66504 -22.09106 36541 ft 510 kts 76°
2026-04-16 12:06 53.68459 -21.97588 36539 ft 511 kts 76°
2026-04-16 12:07 53.70405 -21.86041 36538 ft 512 kts 76°
2026-04-16 12:07 53.72341 -21.74479 36532 ft 511 kts 76°
2026-04-16 12:08 53.74248 -21.63011 36529 ft 510 kts 76°
2026-04-16 12:08 53.76154 -21.51475 36530 ft 509 kts 76°
2026-04-16 12:09 53.78051 -21.39914 36528 ft 511 kts 76°
2026-04-16 12:09 53.79945 -21.28298 36533 ft 512 kts 77°
2026-04-16 12:10 53.81827 -21.16668 36528 ft 512 kts 77°
2026-04-16 12:10 53.83698 -21.05032 36530 ft 512 kts 77°
2026-04-16 12:11 53.85547 -20.93452 36526 ft 512 kts 77°
2026-04-16 12:11 53.87393 -20.81806 36526 ft 512 kts 77°
2026-04-16 12:12 53.89231 -20.70137 36523 ft 512 kts 77°
2026-04-16 12:12 53.91059 -20.58439 36523 ft 513 kts 77°
2026-04-16 12:13 53.92880 -20.46711 36519 ft 514 kts 77°
2026-04-16 12:13 53.94689 -20.34976 36516 ft 514 kts 77°
2026-04-16 12:14 53.96473 -20.23312 36517 ft 514 kts 78°
2026-04-16 12:14 53.98261 -20.11546 36516 ft 514 kts 78°
2026-04-16 12:15 53.99918 -19.99734 36534 ft 511 kts 87°
2026-04-16 12:15 54.00265 -19.87704 36534 ft 510 kts 91°
2026-04-16 12:16 54.00472 -19.75668 36519 ft 510 kts 91°
2026-04-16 12:16 54.00708 -19.63619 36526 ft 510 kts 91°
2026-04-16 12:17 54.00906 -19.51578 36511 ft 510 kts 91°
2026-04-16 12:17 54.01107 -19.39524 36509 ft 510 kts 91°
2026-04-16 12:18 54.01288 -19.27475 36510 ft 510 kts 91°
2026-04-16 12:18 54.01460 -19.15500 36500 ft 510 kts 91°
2026-04-16 12:19 54.01618 -19.03448 36507 ft 510 kts 92°
2026-04-16 12:19 54.01766 -18.91379 36505 ft 510 kts 92°
2026-04-16 12:20 54.01902 -18.79304 36501 ft 511 kts 92°
2026-04-16 12:20 54.02026 -18.67231 36499 ft 510 kts 92°
2026-04-16 12:21 54.02137 -18.55155 36497 ft 511 kts 92°
2026-04-16 12:21 54.02236 -18.43080 36500 ft 511 kts 92°
2026-04-16 12:22 54.02323 -18.31071 36494 ft 511 kts 92°
2026-04-16 12:22 54.02398 -18.18982 36493 ft 510 kts 92°
2026-04-16 12:23 54.02461 -18.06909 36491 ft 510 kts 93°
2026-04-16 12:23 54.02512 -17.94919 36492 ft 510 kts 93°
2026-04-16 12:24 54.02550 -17.83073 36488 ft 511 kts 93°
2026-04-16 12:24 54.02577 -17.70994 36493 ft 510 kts 93°
2026-04-16 12:25 54.02592 -17.58921 36496 ft 510 kts 93°
2026-04-16 12:25 54.02595 -17.46850 36493 ft 511 kts 93°
2026-04-16 12:26 54.02586 -17.34770 36495 ft 511 kts 94°
2026-04-16 12:26 54.02565 -17.22694 36501 ft 510 kts 94°
2026-04-16 12:27 54.02531 -17.10614 36501 ft 511 kts 94°
2026-04-16 12:27 54.02486 -16.98610 36501 ft 511 kts 94°
2026-04-16 12:28 54.02428 -16.86513 36506 ft 512 kts 94°
2026-04-16 12:28 54.02358 -16.74399 36508 ft 512 kts 94°
2026-04-16 12:29 54.02276 -16.62278 36514 ft 513 kts 94°
2026-04-16 12:29 54.02182 -16.50132 36521 ft 513 kts 94°
2026-04-16 12:30 54.02075 -16.38008 36521 ft 513 kts 94°
2026-04-16 12:30 54.01956 -16.25890 36522 ft 512 kts 95°
2026-04-16 12:31 54.01826 -16.13780 36530 ft 512 kts 95°
2026-04-16 12:31 54.01683 -16.01745 36529 ft 513 kts 95°
2026-04-16 12:32 54.01528 -15.89598 36542 ft 513 kts 95°
2026-04-16 12:32 54.01360 -15.77442 36536 ft 514 kts 95°
2026-04-16 12:33 54.01180 -15.65298 36551 ft 514 kts 95°
2026-04-16 12:33 54.00987 -15.53135 36545 ft 515 kts 95°
2026-04-16 12:34 54.00784 -15.41054 36552 ft 515 kts 95°
2026-04-16 12:34 54.00566 -15.28886 36553 ft 514 kts 95°
2026-04-16 12:35 54.00337 -15.16727 36557 ft 514 kts 96°
2026-04-16 12:35 54.00095 -15.04572 36568 ft 515 kts 96°
2026-04-16 12:36 54.00057 -14.92385 36587 ft 516 kts 93°
2026-04-16 12:36 54.00053 -14.80178 36584 ft 517 kts 93°
2026-04-16 12:37 54.00100 -14.67949 36586 ft 517 kts 93°
2026-04-16 12:37 54.00100 -14.55825 36593 ft 516 kts 94°
2026-04-16 12:38 54.00105 -14.43610 36597 ft 516 kts 94°
2026-04-16 12:38 54.00090 -14.31405 36607 ft 516 kts 94°
2026-04-16 12:39 54.00066 -14.19196 36616 ft 516 kts 94°
2026-04-16 12:39 54.00028 -14.06978 36621 ft 517 kts 94°
2026-04-16 12:40 53.99004 -13.95077 36665 ft 505 kts 114°
2026-04-16 12:40 53.96731 -13.83771 36656 ft 505 kts 114°
2026-04-16 12:41 53.94440 -13.72569 36660 ft 505 kts 114°
2026-04-16 12:41 53.92144 -13.61298 36664 ft 504 kts 114°
2026-04-16 12:42 53.89827 -13.50067 36670 ft 504 kts 114°
2026-04-16 12:42 53.87511 -13.38850 36667 ft 504 kts 114°
2026-04-16 12:43 53.85180 -13.27653 36673 ft 504 kts 115°
2026-04-16 12:43 53.82859 -13.16552 36685 ft 503 kts 115°
2026-04-16 12:44 53.80510 -13.05389 36689 ft 503 kts 115°
2026-04-16 12:44 53.78149 -12.94226 36704 ft 504 kts 115°
2026-04-16 12:45 53.75779 -12.83077 36717 ft 504 kts 115°
2026-04-16 12:45 53.73396 -12.71935 36715 ft 504 kts 115°
2026-04-16 12:46 53.71001 -12.60798 36721 ft 505 kts 115°
2026-04-16 12:46 53.68595 -12.49665 36724 ft 504 kts 115°
2026-04-16 12:47 53.66180 -12.38553 36736 ft 504 kts 115°
2026-04-16 12:47 53.63755 -12.27459 36740 ft 504 kts 115°
2026-04-16 12:48 53.61336 -12.16447 36748 ft 505 kts 116°
2026-04-16 12:48 53.58885 -12.05352 36754 ft 505 kts 116°
2026-04-16 12:49 53.56428 -11.94287 36758 ft 505 kts 116°
2026-04-16 12:49 53.53958 -11.83223 36771 ft 505 kts 116°
2026-04-16 12:50 53.51481 -11.72182 36782 ft 504 kts 116°
2026-04-16 12:50 53.49416 -11.63027 36783 ft 504 kts 116°
2026-04-16 12:51 53.46515 -11.50227 36792 ft 504 kts 116°
2026-04-16 12:51 53.44434 -11.41099 36794 ft 504 kts 116°
2026-04-16 12:52 53.41920 -11.30120 36809 ft 504 kts 116°
2026-04-16 12:52 53.39393 -11.19139 36811 ft 505 kts 116°
2026-04-16 12:53 53.36858 -11.08180 36821 ft 504 kts 117°
2026-04-16 12:53 53.34311 -10.97228 36824 ft 505 kts 117°
2026-04-16 12:54 53.31756 -10.86292 36827 ft 505 kts 117°
2026-04-16 12:54 53.29187 -10.75357 36833 ft 505 kts 117°
2026-04-16 12:55 53.26607 -10.64431 36843 ft 505 kts 117°
2026-04-16 12:55 53.24020 -10.53532 36850 ft 505 kts 117°
2026-04-16 12:56 53.21418 -10.42618 36859 ft 506 kts 117°
2026-04-16 12:56 53.18817 -10.31769 36866 ft 506 kts 117°
2026-04-16 12:57 53.16191 -10.20870 36867 ft 506 kts 117°
2026-04-16 12:57 53.13556 -10.09989 36873 ft 506 kts 118°
2026-04-16 12:58 53.10907 -9.99103 36877 ft 507 kts 118°
2026-04-16 12:58 53.08251 -9.88240 36876 ft 507 kts 118°
2026-04-16 12:59 53.05583 -9.77385 36885 ft 507 kts 118°
2026-04-16 13:00 53.01574 -9.61171 36900 ft 508 kts 118°
2026-04-16 13:00 52.98872 -9.50315 36894 ft 509 kts 118°
2026-04-16 13:01 52.96160 -9.39462 36893 ft 509 kts 118°
2026-04-16 13:01 52.93437 -9.28626 36899 ft 509 kts 118°
2026-04-16 13:02 52.90701 -9.17789 36913 ft 510 kts 118°
2026-04-16 13:02 52.87959 -9.06981 36918 ft 509 kts 118°
2026-04-16 13:03 52.85206 -8.96184 36943 ft 509 kts 119°
2026-04-16 13:03 52.82440 -8.85387 36937 ft 510 kts 119°
2026-04-16 13:04 52.79681 -8.74666 36929 ft 510 kts 119°
2026-04-16 13:04 52.76893 -8.63887 36935 ft 510 kts 119°
2026-04-16 13:05 52.74089 -8.53100 36937 ft 511 kts 119°
2026-04-16 13:05 52.71273 -8.42312 36944 ft 513 kts 119°
2026-04-16 13:06 52.68434 -8.31493 36946 ft 514 kts 120°
2026-04-16 13:06 52.65609 -8.20773 36954 ft 513 kts 120°
2026-04-16 13:07 52.62750 -8.09983 36958 ft 514 kts 120°
2026-04-16 13:07 52.59881 -7.99197 36962 ft 515 kts 120°
2026-04-16 13:08 52.56996 -7.88412 36979 ft 516 kts 120°
2026-04-16 13:08 52.54099 -7.77622 36975 ft 516 kts 120°
2026-04-16 13:09 52.51187 -7.66837 36984 ft 516 kts 120°
2026-04-16 13:09 52.48267 -7.56068 37003 ft 518 kts 120°
2026-04-16 13:10 52.45326 -7.45272 37001 ft 517 kts 120°
2026-04-16 13:10 52.42401 -7.34584 37018 ft 517 kts 120°
2026-04-16 13:11 52.39450 -7.23854 37024 ft 517 kts 120°
2026-04-16 13:11 52.36488 -7.13131 37028 ft 517 kts 120°
2026-04-16 13:12 52.33517 -7.02426 37037 ft 517 kts 121°
2026-04-16 13:12 52.30535 -6.91732 37035 ft 517 kts 121°
2026-04-16 13:13 52.27546 -6.81057 37043 ft 516 kts 121°
2026-04-16 13:13 52.24545 -6.70393 37039 ft 517 kts 121°
2026-04-16 13:14 52.21554 -6.59808 37040 ft 517 kts 121°
2026-04-16 13:14 52.18530 -6.49161 37045 ft 517 kts 121°
2026-04-16 13:15 52.15619 -6.38952 37048 ft 517 kts 121°
2026-04-16 13:15 52.12574 -6.28323 37050 ft 517 kts 121°
2026-04-16 13:16 52.09513 -6.17695 37116 ft 527 kts 121°
2026-04-16 13:16 52.07956 -6.12296 37418 ft 527 kts 121°
2026-04-16 13:16 52.06398 -6.06898 37733 ft 527 kts 120°
2026-04-16 13:16 52.05109 -6.01292 38040 ft 534 kts 110°
2026-04-16 13:17 52.04100 -5.95477 38282 ft 535 kts 110°
2026-04-16 13:17 52.03110 -5.89645 38579 ft 535 kts 110°
2026-04-16 13:17 52.02124 -5.83823 38881 ft 534 kts 110°
2026-04-16 13:17 52.01121 -5.78019 39071 ft 535 kts 110°
2026-04-16 13:18 52.00102 -5.72189 39071 ft 537 kts 110°
2026-04-16 13:18 51.98094 -5.60586 39076 ft 532 kts 110°
2026-04-16 13:19 51.96072 -5.49056 39081 ft 532 kts 110°
2026-04-16 13:19 51.94058 -5.37605 39083 ft 532 kts 110°
2026-04-16 13:20 51.92015 -5.26080 39091 ft 532 kts 110°
2026-04-16 13:20 51.90458 -5.14320 39103 ft 536 kts 104°
2026-04-16 13:21 51.89078 -5.02454 39101 ft 536 kts 104°
2026-04-16 13:21 51.87674 -4.90603 39095 ft 536 kts 104°
2026-04-16 13:22 51.86267 -4.78749 39091 ft 536 kts 104°
2026-04-16 13:22 51.84841 -4.66899 39095 ft 536 kts 104°
2026-04-16 13:23 51.83408 -4.55062 39106 ft 537 kts 105°
2026-04-16 13:23 51.81971 -4.43319 39100 ft 536 kts 105°
2026-04-16 13:24 51.80515 -4.31514 39110 ft 536 kts 105°
2026-04-16 13:24 51.79046 -4.19715 39107 ft 536 kts 105°
2026-04-16 13:25 51.77567 -4.07934 39123 ft 535 kts 105°
2026-04-16 13:25 51.76074 -3.96140 39120 ft 536 kts 105°
2026-04-16 13:26 51.74566 -3.84333 39117 ft 537 kts 105°
2026-04-16 13:26 51.73047 -3.72539 39118 ft 537 kts 105°
2026-04-16 13:27 51.71517 -3.60761 39122 ft 536 kts 105°
2026-04-16 13:27 51.70527 -3.48836 39135 ft 538 kts 97°
2026-04-16 13:28 51.69841 -3.36891 39119 ft 539 kts 98°
2026-04-16 13:28 51.69119 -3.24870 39099 ft 539 kts 98°
2026-04-16 13:29 51.68397 -3.12854 39083 ft 539 kts 98°
2026-04-16 13:29 51.67656 -3.00843 39071 ft 539 kts 98°
2026-04-16 13:30 51.66907 -2.88837 39069 ft 539 kts 98°
2026-04-16 13:30 51.66143 -2.76839 39072 ft 539 kts 98°
2026-04-16 13:31 51.65374 -2.64925 39088 ft 538 kts 98°
2026-04-16 13:31 51.64590 -2.52986 39106 ft 537 kts 98°
2026-04-16 13:32 51.63802 -2.41173 39124 ft 537 kts 98°
2026-04-16 13:32 51.63004 -2.29377 39129 ft 537 kts 98°
2026-04-16 13:33 51.62182 -2.17431 39137 ft 537 kts 98°
2026-04-16 13:33 51.61360 -2.05648 39137 ft 537 kts 98°
2026-04-16 13:34 51.60521 -1.93797 39138 ft 537 kts 98°
2026-04-16 13:34 51.59669 -1.81941 39144 ft 537 kts 98°
2026-04-16 13:35 51.58800 -1.70023 39136 ft 537 kts 98°
2026-04-16 13:35 51.58149 -1.64137 39167 ft 532 kts 110°
2026-04-16 13:35 51.57004 -1.58488 39148 ft 533 kts 112°
2026-04-16 13:36 51.54579 -1.47234 39141 ft 533 kts 112°
2026-04-16 13:36 51.52181 -1.35971 39158 ft 533 kts 112°
2026-04-16 13:37 51.49753 -1.24732 39158 ft 533 kts 112°
2026-04-16 13:37 51.48066 -1.13121 39163 ft 536 kts 103°
2026-04-16 13:38 51.46626 -1.01388 39164 ft 535 kts 103°
2026-04-16 13:38 51.45158 -0.89680 39163 ft 536 kts 103°
2026-04-16 13:39 51.43698 -0.78040 39163 ft 535 kts 103°
2026-04-16 13:39 51.42211 -0.66347 39162 ft 535 kts 103°
2026-04-16 13:40 51.40717 -0.54651 39160 ft 536 kts 103°
2026-04-16 13:40 51.39463 -0.44940 39159 ft 535 kts 103°
2026-04-16 13:41 51.37947 -0.33272 39159 ft 535 kts 103°
2026-04-16 13:41 51.36418 -0.21599 39176 ft 535 kts 103°
2026-04-16 13:42 51.34882 -0.09972 39178 ft 534 kts 103°
2026-04-16 13:42 51.33331 0.01669 39174 ft 534 kts 103°
2026-04-16 13:43 51.32172 0.13390 39190 ft 535 kts 100°
2026-04-16 13:43 51.31047 0.25143 39186 ft 535 kts 99°
2026-04-16 13:43 51.30499 0.30945 38904 ft 535 kts 99°
2026-04-16 13:44 51.29940 0.36825 38878 ft 535 kts 99°
2026-04-16 13:44 51.28808 0.48500 38865 ft 535 kts 100°
2026-04-16 13:45 51.27666 0.60236 38905 ft 534 kts 100°
2026-04-16 13:45 51.26507 0.71967 38977 ft 534 kts 100°
2026-04-16 13:46 51.25348 0.83602 39061 ft 534 kts 100°
2026-04-16 13:46 51.24761 0.89446 39192 ft 534 kts 100°
2026-04-16 13:46 51.24171 0.95294 39194 ft 533 kts 100°
2026-04-16 13:47 51.22989 1.06908 39193 ft 533 kts 100°
2026-04-16 13:47 51.21789 1.18583 39193 ft 533 kts 100°
2026-04-16 13:48 51.20576 1.30256 39196 ft 533 kts 100°
2026-04-16 13:48 51.19353 1.41914 39196 ft 533 kts 100°
2026-04-16 13:49 51.18135 1.53417 39198 ft 533 kts 100°
2026-04-16 13:49 51.16889 1.65062 39215 ft 533 kts 100°
2026-04-16 13:50 51.15649 1.76543 39228 ft 533 kts 100°
2026-04-16 13:50 51.14397 1.88022 39231 ft 532 kts 100°
2026-04-16 13:51 51.13136 1.99560 39219 ft 532 kts 97°
2026-04-16 13:51 51.12476 2.11282 39233 ft 532 kts 94°
2026-04-16 13:52 51.11850 2.23021 39241 ft 532 kts 95°
2026-04-16 13:52 51.11202 2.34684 39243 ft 532 kts 95°
2026-04-16 13:53 51.10560 2.46254 39243 ft 532 kts 95°
2026-04-16 13:53 51.09888 2.57969 39246 ft 532 kts 95°
2026-04-16 13:54 51.08699 2.69541 39260 ft 530 kts 107°
2026-04-16 13:54 51.06652 2.80752 39251 ft 531 kts 107°
2026-04-16 13:55 51.04606 2.92036 39249 ft 531 kts 107°
2026-04-16 13:55 51.02541 3.03298 39245 ft 531 kts 107°
2026-04-16 13:56 51.00468 3.14551 39247 ft 531 kts 107°
2026-04-16 13:56 50.98384 3.25801 39244 ft 531 kts 107°
2026-04-16 13:57 50.96286 3.37044 39235 ft 531 kts 107°
2026-04-16 13:57 50.94183 3.48256 39225 ft 530 kts 107°
2026-04-16 13:58 50.91039 3.64886 39225 ft 529 kts 107°
2026-04-16 13:58 50.88905 3.75961 39227 ft 529 kts 107°
2026-04-16 13:59 50.86752 3.87088 39236 ft 528 kts 107°
2026-04-16 13:59 50.84591 3.98194 39229 ft 528 kts 107°
2026-04-16 14:00 50.82434 4.09203 39222 ft 528 kts 107°
2026-04-16 14:00 50.80268 4.20210 39215 ft 526 kts 107°
2026-04-16 14:01 50.78099 4.31158 39210 ft 525 kts 107°
2026-04-16 14:01 50.75915 4.42130 39211 ft 526 kts 107°
2026-04-16 14:02 50.73706 4.53152 39213 ft 527 kts 108°
2026-04-16 14:02 50.71497 4.64171 39216 ft 527 kts 107°
2026-04-16 14:03 50.69394 4.75229 39221 ft 526 kts 107°
2026-04-16 14:03 50.67253 4.86109 39226 ft 526 kts 107°
2026-04-16 14:04 50.65080 4.97129 39223 ft 527 kts 108°
2026-04-16 14:04 50.62786 5.08087 39222 ft 526 kts 108°
2026-04-16 14:05 50.60542 5.19071 39218 ft 527 kts 108°
2026-04-16 14:05 50.58252 5.30038 39217 ft 527 kts 108°
2026-04-16 14:06 50.55970 5.41001 39218 ft 527 kts 108°
2026-04-16 14:06 50.53667 5.51960 39219 ft 527 kts 108°
2026-04-16 14:07 50.51371 5.62903 39224 ft 527 kts 105°
2026-04-16 14:07 50.49325 5.73946 39223 ft 526 kts 107°
2026-04-16 14:08 50.47601 5.83052 39223 ft 530 kts 105°
2026-04-16 14:08 50.45543 5.94051 39221 ft 526 kts 106°
2026-04-16 14:09 50.43464 6.04975 39219 ft 526 kts 106°
2026-04-16 14:09 50.41380 6.15950 39213 ft 524 kts 106°
2026-04-16 14:10 50.39276 6.26907 39202 ft 525 kts 106°
2026-04-16 14:10 50.37167 6.37856 39196 ft 525 kts 106°
2026-04-16 14:11 50.36319 6.43398 39219 ft 522 kts 95°
2026-04-16 14:11 50.35946 6.49059 39198 ft 523 kts 94°
2026-04-16 14:11 50.35254 6.60418 39199 ft 524 kts 94°
2026-04-16 14:12 50.34514 6.71739 38830 ft 521 kts 94°
2026-04-16 14:12 50.34151 6.77423 37789 ft 527 kts 93°
2026-04-16 14:12 50.33799 6.83160 36890 ft 530 kts 93°
2026-04-16 14:13 50.33378 6.88905 36003 ft 534 kts 100°
2026-04-16 14:13 50.32356 6.94511 35114 ft 539 kts 111°
2026-04-16 14:13 50.30704 6.99704 34186 ft 543 kts 123°
2026-04-16 14:13 50.28432 7.04411 33144 ft 542 kts 135°
2026-04-16 14:14 50.25667 7.08361 32294 ft 535 kts 147°
2026-04-16 14:14 50.22540 7.11404 31427 ft 526 kts 158°
2026-04-16 14:14 50.19185 7.13467 30865 ft 510 kts 168°
2026-04-16 14:14 50.15771 7.14571 30208 ft 494 kts 179°
2026-04-16 14:15 50.12384 7.14744 29423 ft 481 kts 189°
2026-04-16 14:15 50.09114 7.14068 28683 ft 468 kts 198°
2026-04-16 14:15 50.06036 7.12625 27910 ft 457 kts 207°
2026-04-16 14:15 50.03212 7.10509 27185 ft 445 kts 216°
2026-04-16 14:16 50.00681 7.07809 26402 ft 437 kts 224°
2026-04-16 14:16 49.98487 7.04629 25674 ft 428 kts 232°
2026-04-16 14:16 49.96645 7.01050 24939 ft 420 kts 239°
2026-04-16 14:16 49.95197 6.97160 24176 ft 413 kts 249°
2026-04-16 14:17 49.94390 6.92941 23420 ft 404 kts 263°
2026-04-16 14:17 49.94322 6.88629 22629 ft 398 kts 277°
2026-04-16 14:17 49.94999 6.84495 21854 ft 394 kts 292°
2026-04-16 14:17 49.96408 6.80925 21620 ft 382 kts 310°
2026-04-16 14:18 49.98439 6.78273 21750 ft 391 kts 326°
2026-04-16 14:18 50.01001 6.76585 21746 ft 408 kts 342°
2026-04-16 14:18 50.03838 6.76045 21746 ft 416 kts 358°
2026-04-16 14:18 50.06735 6.76487 21733 ft 420 kts
2026-04-16 14:19 50.09574 6.77680 21727 ft 428 kts 17°
2026-04-16 14:19 50.12241 6.79794 21737 ft 434 kts 30°
2026-04-16 14:19 50.14601 6.82766 21741 ft 440 kts 42°
2026-04-16 14:19 50.16539 6.86503 21740 ft 446 kts 54°
2026-04-16 14:20 50.17925 6.90780 21745 ft 451 kts 67°
2026-04-16 14:20 50.18716 6.95530 21747 ft 454 kts 81°
2026-04-16 14:20 50.18835 7.00461 21746 ft 456 kts 94°
2026-04-16 14:20 50.18562 7.05388 21745 ft 456 kts 94°
2026-04-16 14:21 50.18263 7.10319 21741 ft 457 kts 95°
2026-04-16 14:21 50.17940 7.15246 21725 ft 453 kts 95°
2026-04-16 14:21 50.17629 7.20115 20721 ft 453 kts 95°
2026-04-16 14:21 50.17332 7.24998 20118 ft 447 kts 95°
2026-04-16 14:22 50.17034 7.29776 19429 ft 441 kts 95°
2026-04-16 14:22 50.16726 7.34518 18761 ft 436 kts 95°
2026-04-16 14:22 50.16424 7.39189 18046 ft 431 kts 95°
2026-04-16 14:22 50.16127 7.43816 17298 ft 426 kts 95°
2026-04-16 14:23 50.15832 7.48377 16620 ft 420 kts 95°
2026-04-16 14:23 50.15538 7.52854 16334 ft 406 kts 95°
2026-04-16 14:23 50.15250 7.57219 16426 ft 411 kts 95°
2026-04-16 14:23 50.14954 7.61703 16435 ft 417 kts 95°
2026-04-16 14:24 50.14655 7.66201 16335 ft 418 kts 95°
2026-04-16 14:24 50.14456 7.69181 16256 ft 416 kts 96°
2026-04-16 14:24 50.14055 7.75121 16208 ft 415 kts 96°
2026-04-16 14:24 50.13752 7.79604 16210 ft 416 kts 96°
2026-04-16 14:25 50.13447 7.84081 16211 ft 415 kts 96°
2026-04-16 14:25 50.13140 7.88563 16213 ft 416 kts 96°
2026-04-16 14:25 50.12831 7.93040 16212 ft 416 kts 96°
2026-04-16 14:25 50.12625 7.96015 16211 ft 416 kts 96°
2026-04-16 14:26 50.12313 8.00494 16217 ft 416 kts 96°
2026-04-16 14:26 50.12000 8.04971 16220 ft 414 kts 96°
2026-04-16 14:26 50.11692 8.09337 16123 ft 394 kts 96°
2026-04-16 14:26 50.11401 8.13462 16115 ft 372 kts 96°
2026-04-16 14:27 50.11123 8.17366 16076 ft 353 kts 96°
2026-04-16 14:27 50.10858 8.21077 15906 ft 338 kts 96°
2026-04-16 14:27 50.10591 8.24798 15381 ft 337 kts 96°
2026-04-16 14:27 50.10336 8.28338 14977 ft 334 kts 96°
2026-04-16 14:28 50.10077 8.31919 14563 ft 331 kts 96°
2026-04-16 14:28 50.09825 8.35471 14160 ft 328 kts 94°
2026-04-16 14:28 50.10043 8.38954 13654 ft 322 kts 71°
2026-04-16 14:28 50.10770 8.42246 13144 ft 320 kts 68°
2026-04-16 14:29 50.11563 8.45454 12695 ft 311 kts 67°
2026-04-16 14:29 50.12345 8.48593 11763 ft 314 kts 68°
2026-04-16 14:29 50.13092 8.51732 11254 ft 306 kts 69°
2026-04-16 14:29 50.13823 8.54834 10643 ft 304 kts 69°
2026-04-16 14:30 50.14554 8.57900 10067 ft 300 kts 69°
2026-04-16 14:30 50.15279 8.60934 9436 ft 297 kts 69°
2026-04-16 14:30 50.15993 8.63932 8797 ft 294 kts 69°
2026-04-16 14:30 50.16700 8.66910 8177 ft 291 kts 69°
2026-04-16 14:31 50.17397 8.69852 7562 ft 288 kts 69°
2026-04-16 14:31 50.18089 8.72769 6993 ft 285 kts 69°
2026-04-16 14:31 50.18774 8.75656 6383 ft 282 kts 69°
2026-04-16 14:31 50.19448 8.78502 5976 ft 272 kts 69°
2026-04-16 14:32 50.20072 8.81151 5946 ft 249 kts 69°
2026-04-16 14:32 50.20655 8.83629 5471 ft 242 kts 69°
2026-04-16 14:32 50.21230 8.86067 4906 ft 241 kts 69°
2026-04-16 14:32 50.21730 8.88547 4297 ft 239 kts 82°
2026-04-16 14:33 50.21331 8.90971 3979 ft 225 kts 125°
2026-04-16 14:33 50.20236 8.92597 3973 ft 215 kts 151°
2026-04-16 14:33 50.18830 8.93288 3977 ft 213 kts 177°
2026-04-16 14:33 50.17392 8.92942 3981 ft 208 kts 204°
2026-04-16 14:34 50.16170 8.91790 3999 ft 198 kts 216°
2026-04-16 14:34 50.15098 8.90647 3985 ft 177 kts 216°
2026-04-16 14:34 50.14096 8.89622 3981 ft 168 kts 214°
2026-04-16 14:34 50.13117 8.88640 3970 ft 166 kts 214°
2026-04-16 14:35 50.12151 8.87674 3981 ft 164 kts 214°
2026-04-16 14:35 50.11188 8.86710 3982 ft 165 kts 214°
2026-04-16 14:35 50.10441 8.85410 3854 ft 165 kts 249°
2026-04-16 14:35 50.10095 8.83699 3711 ft 168 kts 246°
2026-04-16 14:36 50.09609 8.82078 3513 ft 163 kts 249°
2026-04-16 14:36 50.09196 8.80429 3303 ft 164 kts 249°
2026-04-16 14:36 50.08803 8.78801 3084 ft 155 kts 249°
2026-04-16 14:36 50.08423 8.77204 2879 ft 158 kts 250°
2026-04-16 14:37 50.08042 8.75609 2676 ft 156 kts 250°
2026-04-16 14:37 50.07680 8.74089 2459 ft 146 kts 250°
2026-04-16 14:37 50.07335 8.72638 2279 ft 142 kts 250°
2026-04-16 14:37 50.06993 8.71204 2087 ft 140 kts 249°
2026-04-16 14:38 50.06653 8.69778 1893 ft 140 kts 250°
2026-04-16 14:38 50.06322 8.68352 1700 ft 140 kts 250°
2026-04-16 14:38 50.05984 8.66933 1484 ft 138 kts 249°
2026-04-16 14:38 50.05629 8.65531 1286 ft 137 kts 249°
2026-04-16 14:39 50.05297 8.64120 1090 ft 139 kts 252°
2026-04-16 14:39 50.04957 8.62688 946 ft 144 kts 252°
2026-04-16 14:39 50.04611 8.61210 740 ft 148 kts 253°
2026-04-16 14:39 50.04249 8.59728 528 ft 145 kts 253°
2026-04-16 14:40 50.03907 8.58268 379 ft 142 kts 254°
2026-04-16 14:40 50.03640 8.57118 362 ft 75 kts 250°
2026-04-16 14:40 50.03490 8.56498 362 ft 58 kts 249°
2026-04-16 14:40 50.03449 8.55962 354 ft 43 kts 279°
2026-04-16 14:41 50.03479 8.55686 355 ft 11 kts 279°
2026-04-16 14:41 50.03494 8.55567 358 ft 11 kts 290°
2026-04-16 14:41 50.03526 8.55520 358 ft 4 kts 340°
2026-04-16 14:41 50.03553 8.55515 357 ft 4 kts
2026-04-16 14:42 50.03625 8.55527 356 ft 18 kts
2026-04-16 14:42 50.03746 8.55555 361 ft 17 kts
2026-04-16 14:42 50.03823 8.55529 361 ft 6 kts 345°
2026-04-16 14:42 50.03840 8.55520 358 ft 2 kts 339°
2026-04-16 14:43 50.03859 8.55508 361 ft 3 kts 337°
2026-04-16 14:43 50.03882 8.55493 364 ft 4 kts 337°
2026-04-16 14:43 50.03950 8.55467 360 ft 14 kts 348°
2026-04-16 14:43 50.04041 8.55428 364 ft 13 kts 340°
2026-04-16 14:44 50.04101 8.55422 363 ft 6 kts 33°
2026-04-16 14:44 50.04129 8.55489 359 ft 12 kts 64°
2026-04-16 14:44 50.04171 8.55676 367 ft 23 kts 66°
2026-04-16 14:44 50.04231 8.55899 362 ft 22 kts 67°
2026-04-16 14:45 50.04297 8.55957 363 ft 8 kts 347°
2026-04-16 14:45 50.04367 8.55917 367 ft 13 kts 340°
2026-04-16 14:45 50.04452 8.55923 364 ft 12 kts 14°
2026-04-16 14:45 50.04528 8.55961 366 ft 11 kts 24°
2026-04-16 14:46 50.04583 8.55978 367 ft 6 kts 342°
2026-04-16 14:46 50.04621 8.55956 366 ft 5 kts 340°
2026-04-16 14:46 50.04635 8.55949 365 ft 0 kts 340°
2026-04-16 14:46 50.04640 8.55946 367 ft 1 kts 340°
2026-04-16 14:47 50.04644 8.55943 366 ft 0 kts 340°